Wind_Speed
11 11 12 12 13 13 13 12 12 12 11 11 11 12 12 12 12 13 13 14 15 16 16 16 16 15 14 14 13 12 12 12 12 13 13 15 17 17 18 17 17 16 16
12 13 13 13 13 13 13 13 12 12 11 10 10 11 12 12 12 12 13 14 14 15 16 16 16 16 15 15 14 13 13 12 13 13 14 15 17 17 17 17 17 16 16
13 14 14 14 14 13 13 12 12 11 10 10 10 10 11 11 12 12 13 14 14 15 16 16 16 17 16 16 15 14 14 14 13 14 14 15 16 17 17 17 17 18 17
13 14 14 15 14 13 13 12 11 11 10 10 9 10 10 11 11 12 13 14 15 16 16 17 18 17 17 16 16 15 15 15 15 15 15 16 16 17 17 17 18 18 18
13 14 15 15 14 14 13 13 12 11 10 9 9 9 10 11 11 12 12 14 15 16 17 17 18 18 18 17 17 17 15 16 16 17 16 16 17 18 18 18 19 19 18
13 14 15 15 14 14 14 13 12 11 10 9 9 9 9 10 11 12 12 13 14 15 16 17 18 19 19 18 18 18 17 16 16 17 17 17 18 19 18 18 19 19 19
14 14 15 15 14 14 14 13 12 11 9 8 8 8 8 9 10 12 12 12 14 14 15 17 18 19 20 20 20 19 18 17 17 17 17 18 18 19 19 19 19 19 19
14 14 14 15 15 15 14 13 12 10 9 7 7 6 7 8 9 10 12 12 13 14 15 17 18 19 21 20 20 21 20 19 18 17 18 18 18 19 19 20 19 19 19
14 14 14 15 14 14 14 13 12 10 8 7 6 5 6 7 8 9 11 12 13 14 15 16 18 19 20 21 21 21 21 21 20 19 18 18 19 19 19 20 20 20 19
13 14 15 15 14 14 13 13 12 10 9 7 6 5 5 5 6 8 9 11 13 14 15 16 17 18 20 21 21 22 22 22 22 21 20 20 20 19 20 20 20 20 20
13 14 14 14 14 14 13 12 12 11 9 7 6 5 4 4 5 6 8 10 12 13 14 15 17 18 19 20 21 22 22 22 23 23 22 22 21 21 21 21 21 20 21
13 13 13 14 14 14 13 12 12 11 9 8 7 6 4 4 4 5 7 9 10 12 13 14 16 17 18 19 21 22 23 23 24 24 23 23 23 23 23 22 22 21 21
12 13 13 13 13 13 13 12 12 11 10 8 8 7 5 4 4 5 6 8 10 11 13 14 16 17 18 19 20 21 22 23 24 25 25 25 24 24 24 24 23 22 22
12 12 12 12 13 12 12 12 12 11 10 9 8 8 7 5 5 5 6 7 9 10 12 13 15 16 17 19 20 21 22 22 23 24 25 25 25 25 25 25 24 24 23
12 12 12 12 12 12 12 12 12 12 11 10 9 8 8 7 6 5 5 6 8 9 10 12 14 16 16 17 19 20 22 23 23 24 24 25 25 25 25 25 25 25 24
12 12 12 12 12 12 12 12 12 12 11 10 10 9 8 7 6 5 6 7 8 9 10 12 14 15 16 17 18 20 22 23 23 23 24 25 25 25 26 26 26 26 26
12 13 12 12 12 12 13 13 13 12 12 11 10 10 9 7 6 6 6 7 8 9 11 12 14 15 16 17 18 20 21 22 23 24 24 25 26 25 26 26 27 27 27
13 13 13 13 13 13 13 13 13 13 13 12 11 11 10 8 8 8 8 8 9 10 11 13 14 15 17 18 19 20 22 22 24 25 25 26 27 26 27 28 28 28 28
14 14 14 14 14 14 14 14 14 14 14 13 12 11 11 10 10 10 10 10 10 11 12 13 14 15 17 18 20 21 22 23 24 26 26 27 28 28 28 28 28 29 28
15 15 15 15 16 15 16 16 16 16 15 15 14 13 12 12 12 12 12 11 12 12 13 14 15 16 17 18 20 21 23 24 25 26 27 28 29 29 29 30 30 30 30
16 17 17 17 17 17 17 17 17 17 17 16 16 15 14 14 14 14 14 13 13 13 14 14 15 16 17 18 19 21 22 23 24 26 27 27 28 29 28 29 30 31 31
18 19 19 19 19 20 20 19 19 19 18 17 17 17 17 16 16 16 16 16 15 15 15 15 16 17 17 18 19 20 21 22 23 24 25 26 27 27 28 28 29 30 31
20 20 21 22 22 22 22 22 22 21 20 20 19 19 19 19 18 18 18 17 17 17 17 17 17 18 18 19 20 21 21 22 23 24 25 25 27 27 28 28 28 29 30
24 24 24 25 25 25 25 25 25 24 23 23 22 22 22 21 21 20 20 19 19 19 19 20 19 19 20 20 21 21 22 23 24 25 25 26 27 28 29 29 29 30 31
27 28 28 28 28 27 27 27 27 26 26 25 25 24 24 24 23 23 22 21 21 21 21 21 21 21 22 22 23 23 24 24 24 25 26 26 28 29 29 29 30 31 32
30 30 31 31 30 30 30 30 29 29 29 28 28 28 27 26 26 26 26 25 24 24 24 24 24 24 24 24 24 25 26 26 26 26 27 28 29 29 29 29 30 31 32
Wind_Direction
342 339 334 332 328 323 317 310 304 297 291 284 274 267 262 257 250 244 238 233 230 225 222 220 219 218 218 219 219 217 213 204 201 194 194 191 188 187 186 186 189 190 191
344 342 339 336 332 328 323 317 309 301 293 285 276 267 262 257 250 240 235 230 227 224 220 219 219 219 220 220 218 214 211 205 198 193 191 191 191 192 191 191 192 193 193
343 342 340 338 335 332 329 323 315 306 297 286 275 268 261 256 247 240 235 229 226 223 220 219 219 218 219 220 218 213 212 207 202 198 198 195 193 194 195 196 196 197 194
344 344 342 340 338 336 333 328 320 312 301 289 277 267 260 253 246 240 236 230 226 224 222 221 220 218 218 219 218 214 211 208 206 205 201 198 198 198 199 199 198 196 194
346 346 345 344 341 338 336 332 326 317 307 292 280 269 260 251 244 239 235 229 226 224 223 222 221 219 218 217 217 215 211 211 209 208 205 203 203 202 203 204 202 200 200
347 347 347 346 344 340 337 335 332 324 314 299 285 274 261 250 241 237 234 228 224 224 224 223 221 220 219 217 217 215 213 212 211 211 211 209 208 206 206 204 204 204 205
349 349 348 347 345 342 339 337 335 331 323 311 294 276 262 252 241 235 232 229 225 224 224 223 222 220 219 219 218 216 214 212 211 213 212 210 209 208 205 203 204 207 208
352 351 350 348 347 346 343 341 338 335 330 321 305 283 265 256 243 235 232 229 227 226 225 224 223 222 221 220 219 218 217 215 215 215 214 212 210 209 206 205 206 210 211
351 352 350 349 349 349 348 347 347 342 336 329 317 297 276 262 248 237 233 230 228 227 227 224 223 222 221 221 220 220 219 217 218 218 215 215 213 212 212 212 212 216 216
349 352 352 351 352 352 353 353 353 351 347 340 329 310 287 269 253 242 238 233 229 228 227 224 222 223 222 221 221 220 220 219 219 220 220 220 218 215 216 218 218 219 219
347 350 352 353 353 354 355 355 357 358 356 351 345 334 311 283 266 251 241 235 231 229 227 225 224 224 222 221 222 222 223 221 221 221 222 223 221 220 220 221 222 223 222
343 346 350 353 354 355 356 357 358 359 357 354 349 343 327 299 275 259 250 241 232 229 228 227 224 222 221 222 223 225 225 223 223 222 223 223 223 224 225 225 225 225 224
341 343 346 350 354 355 356 356 357 356 354 351 346 341 332 311 287 265 258 248 237 232 229 228 224 222 223 224 224 225 226 225 224 224 225 225 226 226 225 225 224 224 226
340 341 344 347 350 352 354 355 355 353 352 349 344 340 334 317 294 276 262 253 245 237 234 230 227 225 226 226 225 225 226 226 226 226 227 226 226 225 226 225 226 227 229
339 340 341 343 344 347 350 352 352 350 348 346 343 338 335 323 302 284 266 254 248 243 241 236 232 230 228 229 229 228 228 227 227 227 227 226 225 226 227 229 230 231 233
335 336 337 340 340 342 345 347 348 347 344 342 341 338 333 327 314 293 274 262 255 251 248 242 238 235 232 232 233 231 230 229 230 230 229 228 227 227 228 231 233 234 234
329 331 332 332 334 336 338 339 340 341 340 337 336 334 332 322 314 298 285 273 264 258 254 250 244 240 238 238 236 234 231 230 229 230 231 230 231 231 230 232 234 236 236
323 324 325 325 326 328 329 330 333 333 331 329 328 327 324 316 306 297 289 281 271 264 259 255 250 245 243 241 239 237 235 231 229 231 232 232 232 233 234 234 235 237 239
316 317 318 319 320 321 322 323 323 324 326 323 319 317 315 310 304 298 292 286 278 271 263 259 254 249 245 243 241 238 236 234 233 233 233 233 234 235 237 237 239 240 242
313 313 313 313 313 314 315 315 316 316 317 315 313 313 312 309 303 297 292 286 279 274 269 262 257 252 248 245 244 241 238 237 237 236 236 236 237 239 239 239 240 241 243
309 310 310 309 308 308 309 309 310 310 310 309 306 305 304 304 301 297 291 286 280 276 272 266 261 256 252 248 246 243 240 239 239 239 239 239 239 240 241 242 241 242 245
305 305 305 305 304 304 303 303 304 304 304 303 301 300 299 299 297 294 289 285 281 277 273 268 263 259 255 250 247 243 241 239 240 240 240 241 241 241 241 243 243 243 244
303 304 303 301 300 299 298 297 297 298 298 297 296 296 296 295 294 291 287 283 281 277 273 269 264 260 257 252 249 245 243 240 240 241 239 241 242 242 243 244 243 244 245
299 300 301 301 300 298 296 294 292 292 292 292 292 291 291 291 290 288 286 282 279 275 271 268 264 261 258 254 252 249 246 244 244 243 242 242 243 244 244 245 245 246 247
297 298 298 298 298 296 295 293 291 290 289 288 288 288 287 286 285 284 283 281 279 275 271 267 263 261 258 256 254 252 249 247 246 246 246 246 246 248 248 248 248 248 249
296 296 296 295 295 294 293 292 291 289 287 286 285 285 284 282 281 280 279 278 277 275 272 269 265 261 259 257 256 254 251 249 247 247 248 249 250 250 250 250 251 250 250
Height
5855 5852 5850 5847 5845 5843 5841 5839 5838 5836 5835 5835 5835 5835 5836 5836 5837 5838 5839 5841 5843 5845 5847 5849 5851 5854 5856 5858 5859 5861 5862 5863 5865 5866 5868 5869 5871 5874 5877 5880 5883 5886 5888
5853 5850 5848 5845 5843 5840 5838 5836 5834 5833 5832 5832 5832 5832 5832 5833 5834 5835 5837 5838 5840 5842 5844 5847 5849 5851 5854 5856 5858 5859 5861 5863 5864 5866 5867 5869 5872 5875 5877 5880 5883 5885 5888
5851 5848 5846 5843 5840 5838 5835 5833 5831 5830 5829 5829 5829 5829 5829 5830 5831 5832 5834 5835 5837 5839 5842 5844 5846 5849 5851 5854 5856 5858 5860 5862 5864 5866 5867 5869 5871 5874 5877 5880 5882 5885 5887
5849 5847 5844 5841 5838 5836 5833 5831 5829 5827 5826 5826 5825 5825 5826 5827 5828 5829 5831 5833 5834 5837 5839 5841 5844 5846 5849 5851 5854 5856 5858 5860 5863 5865 5867 5868 5871 5873 5876 5879 5881 5884 5886
5848 5845 5842 5839 5836 5834 5831 5829 5827 5825 5823 5823 5822 5822 5823 5824 5825 5826 5828 5830 5831 5834 5836 5838 5841 5844 5846 5849 5852 5854 5856 5859 5861 5863 5865 5867 5870 5872 5874 5877 5880 5882 5885
5846 5843 5840 5837 5835 5832 5829 5827 5824 5822 5821 5820 5819 5819 5820 5821 5822 5823 5825 5827 5829 5831 5833 5835 5838 5841 5843 5846 5849 5852 5854 5857 5859 5861 5863 5866 5868 5870 5872 5875 5877 5881 5883
5845 5842 5839 5836 5833 5830 5828 5825 5822 5820 5819 5818 5817 5817 5818 5818 5819 5821 5822 5824 5826 5828 5830 5832 5835 5838 5840 5843 5846 5849 5852 5854 5857 5859 5861 5863 5865 5868 5870 5873 5876 5879 5882
5844 5841 5838 5835 5832 5829 5826 5823 5821 5819 5817 5816 5815 5815 5815 5817 5817 5818 5820 5821 5823 5825 5827 5829 5832 5835 5837 5840 5843 5846 5849 5852 5854 5857 5859 5861 5863 5866 5868 5871 5874 5877 5880
5843 5840 5837 5834 5831 5828 5825 5822 5819 5817 5816 5815 5814 5814 5814 5814 5815 5817 5818 5819 5820 5822 5824 5826 5829 5831 5834 5837 5840 5843 5846 5849 5851 5854 5856 5859 5861 5864 5866 5869 5872 5874 5877
5842 5839 5836 5833 5830 5827 5824 5822 5819 5817 5815 5814 5813 5813 5813 5813 5814 5815 5816 5817 5818 5819 5821 5823 5825 5828 5831 5833 5836 5839 5842 5845 5848 5851 5853 5856 5859 5861 5864 5866 5869 5872 5874
5841 5838 5835 5833 5830 5827 5824 5821 5819 5817 5815 5814 5813 5812 5812 5812 5812 5813 5814 5814 5815 5816 5818 5820 5822 5824 5827 5830 5833 5835 5839 5841 5844 5847 5850 5853 5855 5858 5861 5863 5866 5868 5871
5840 5838 5835 5832 5829 5827 5824 5821 5819 5817 5815 5814 5813 5812 5811 5811 5811 5811 5811 5812 5813 5814 5815 5817 5819 5821 5824 5826 5829 5832 5834 5837 5840 5843 5846 5849 5852 5854 5857 5860 5862 5865 5867
5839 5837 5834 5831 5829 5826 5824 5821 5819 5817 5815 5813 5812 5811 5810 5809 5809 5809 5809 5810 5810 5812 5813 5814 5816 5818 5820 5823 5825 5828 5830 5833 5836 5839 5842 5845 5847 5850 5853 5856 5858 5861 5863
5838 5836 5833 5831 5828 5826 5824 5821 5819 5817 5815 5813 5812 5810 5809 5808 5807 5807 5807 5808 5808 5809 5810 5812 5813 5815 5817 5819 5821 5824 5826 5829 5832 5834 5837 5840 5843 5845 5848 5851 5853 5856 5858
5837 5835 5833 5830 5828 5825 5823 5821 5819 5816 5814 5813 5811 5809 5808 5807 5806 5805 5805 5806 5807 5807 5808 5809 5811 5812 5814 5816 5818 5820 5822 5824 5827 5830 5832 5835 5838 5841 5844 5846 5848 5851 5853
5836 5833 5831 5829 5827 5825 5822 5820 5818 5816 5814 5812 5810 5808 5806 5805 5804 5804 5804 5804 5804 5805 5805 5806 5807 5809 5810 5812 5814 5815 5818 5820 5822 5825 5827 5830 5833 5836 5838 5841 5844 5846 5848
5834 5832 5830 5828 5826 5824 5821 5819 5817 5815 5813 5811 5809 5807 5805 5804 5803 5802 5802 5802 5802 5802 5802 5803 5804 5805 5806 5807 5809 5811 5813 5815 5817 5820 5822 5825 5828 5830 5833 5836 5838 5840 5843
5832 5830 5828 5826 5824 5822 5820 5818 5816 5813 5811 5810 5808 5806 5804 5803 5802 5801 5800 5800 5799 5799 5799 5799 5800 5801 5802 5803 5804 5806 5808 5810 5812 5815 5817 5820 5822 5825 5827 5830 5832 5834 5836
5830 5828 5826 5824 5822 5820 5818 5816 5813 5811 5809 5807 5806 5804 5802 5801 5800 5799 5798 5797 5796 5796 5796 5796 5796 5796 5797 5798 5799 5800 5802 5804 5806 5809 5811 5814 5816 5818 5821 5823 5826 5828 5830
5827 5825 5823 5821 5819 5817 5815 5813 5811 5809 5807 5805 5803 5801 5800 5798 5797 5796 5795 5794 5793 5792 5792 5792 5792 5792 5792 5793 5794 5795 5797 5799 5801 5803 5805 5807 5810 5812 5814 5816 5819 5821 5823
5823 5821 5819 5817 5815 5813 5811 5809 5808 5806 5804 5802 5800 5798 5797 5795 5794 5792 5791 5790 5789 5789 5788 5788 5787 5787 5788 5788 5789 5790 5791 5793 5795 5797 5799 5801 5803 5805 5807 5809 5811 5814 5816
5819 5817 5815 5813 5811 5809 5807 5805 5803 5801 5800 5798 5796 5794 5793 5791 5790 5788 5787 5786 5785 5784 5784 5783 5783 5783 5783 5783 5784 5785 5786 5787 5789 5791 5793 5794 5796 5798 5800 5802 5804 5806 5808
5815 5812 5810 5808 5806 5803 5801 5799 5797 5796 5794 5793 5791 5790 5788 5787 5785 5783 5782 5781 5780 5779 5779 5778 5778 5778 5778 5778 5778 5779 5780 5781 5783 5784 5786 5787 5789 5791 5793 5794 5796 5798 5800
5809 5806 5804 5801 5799 5797 5794 5793 5791 5789 5788 5786 5785 5783 5782 5780 5779 5777 5776 5775 5774 5773 5772 5772 5772 5772 5772 5772 5773 5773 5774 5775 5776 5777 5779 5781 5782 5783 5785 5786 5788 5790 5791
5801 5799 5796 5794 5791 5789 5787 5785 5783 5781 5780 5779 5777 5776 5775 5773 5772 5770 5769 5768 5767 5766 5766 5765 5765 5765 5766 5766 5766 5767 5768 5768 5769 5770 5772 5773 5774 5776 5777 5778 5779 5781 5783
5793 5790 5788 5785 5783 5780 5778 5776 5774 5773 5771 5770 5769 5768 5766 5765 5764 5763 5762 5761 5760 5759 5758 5758 5758 5758 5758 5759 5759 5759 5760 5761 5762 5763 5764 5765 5766 5767 5769 5770 5771 5772 5773